Content
SEND FEEDBACK

Daily
Averages
Monthly
Summary
Canada

MONCTON, NEW BRUNSWICK


Home > North America > Canada > New Brunswick
Elevation: 232 feet     Latitude: 46 07N     Longitude: 064 41W

WEATHER
 
SELECT A DAY
Number of Records: 206,357;   Date Range: 1/1/95 - 10/18/14
 
SHARE

PRINT THIS DATA

[ ← Previous Day ]
WEATHER ALMANAC - JANUARY 1, 2013
[ Next Day → ]
[ °C ]   °F
Weather ElementAverageHighLow
Temperature17.5 °F24.8 °F (12:00 pm)6.8 °F (11:00 pm)
Dewpoint12.2 °F20 °F (2:00 pm)-0.4 °F (11:00 pm)
Humidity79.1 %93 % (8:00 am)57 % (8:00 pm)
Barometer29.46 in29.55 in (1:00 am)29.41 in (1:51 pm)
Wind Speed13.3 mph24.2 mph (3:57 pm)
Wind Gust32.2 mph (11:00 pm)
Weather ElementAverage
Visibility11.7 mi
Wind DirectionWSW (256.8 °)

Weather ElementTotal
Precipitation---
Heating Degree Days49.2 (Base 65)
Averaged from 40 records on January 1, 2013
WEATHER CONDITIONS BREAKOUT
WIND DIRECTION BREAKOUT
WEATHER BY HOUR - JANUARY 1, 2013
[ °C ]   °F
Local TimeTemperatureDewpointHumidityBarometerVisibilityWind DirectionWind SpeedGust SpeedPrecipitationEventsConditions
1:00 AM12.2 °F6.8 °F79 %29.55 in15.0 miWSW (250°)18.4 mph25.3 mphClear
2:00 AM12.0 °F7.0 °F70 %29.54 in15.0 miWSW (240°)17.3 mph
2:00 AM12.2 °F6.8 °F79 %29.54 in15.0 miWSW (240°)16.1 mphClear
3:00 AM12.2 °F6.8 °F79 %29.53 in15.0 miWSW (240°)15.0 mphClear
4:00 AM12.2 °F8.6 °F85 %29.51 in15.0 miSW (220°)5.8 mphMostly Cloudy
5:00 AM12.2 °F8.6 °F85 %29.49 in15.0 miWSW (250°)4.6 mphMostly Cloudy
5:57 AM12.2 °F8.6 °F85 %29.47 in12.0 miWSW (240°)3.5 mphSnowLight Snow
6:00 AM12.2 °F8.6 °F85 %29.47 in12.0 miWSW (240°)4.6 mphSnowLight Snow
7:00 AM15.8 °F12.2 °F86 %29.45 in15.0 miWSW (250°)4.6 mphSnowLight Snow
7:35 AM15.8 °F12.2 °F86 %29.45 in15.0 miWest (260°)4.6 mphMostly Cloudy
8:00 AM14.0 °F12.2 °F93 %29.44 in15.0 miSW (230°)5.8 mphMostly Cloudy
8:00 AM14.0 °F12.0 °F87 %29.44 in15.0 miWSW (240°)4.6 mphSnowLight Snow
9:00 AM15.8 °F14.0 °F93 %29.44 in15.0 miSW (230°)9.2 mphMostly Cloudy
9:53 AM15.8 °F14.0 °F93 %29.45 in7.0 miSW (230°)9.2 mphSnowLight Snow
10:00 AM17.6 °F15.8 °F93 %29.45 in6.0 miWSW (240°)10.4 mphSnowLight Snow
11:00 AM23.0 °F19.4 °F86 %29.44 in15.0 miWSW (250°)13.8 mph20.7 mphMostly Cloudy
12:00 PM24.8 °F19.4 °F80 %29.44 in15.0 miWest (260°)18.4 mph27.6 mphSnowLow Drifting Snow
12:05 PM24.8 °F19.4 °F80 %29.44 in15.0 miWest (270°)15.0 mph25.3 mphSnowLight Snow Showers
12:39 PM24.8 °F19.4 °F80 %29.43 in2.0 miWest (260°)16.1 mph24.2 mphSnowLight Snow Showers
12:52 PM24.8 °F19.4 °F80 %29.42 in6.0 miWest (260°)15.0 mphSnowLight Snow Showers
1:00 PM24.8 °F19.4 °F80 %29.42 in6.0 miWSW (250°)17.3 mphSnowLight Snow Showers
1:22 PM24.8 °F19.4 °F80 %29.42 in1.8 miWest (270°)12.7 mphSnowLight Snow Showers
1:36 PM23.0 °F19.4 °F86 %29.42 in1.2 miWest (260°)12.7 mphSnowLight Snow Showers
1:51 PM23.0 °F19.4 °F86 %29.41 in1.5 miWest (260°)12.7 mphSnowLight Snow Showers
2:00 PM24.0 °F20.0 °F78 %29.41 in1.0 miWest (270°)12.7 mphSnowLight Snow Showers
2:00 PM23.0 °F19.4 °F86 %29.41 in1.5 miWest (270°)11.5 mph17.3 mphSnowLight Snow Showers
2:12 PM23.0 °F19.4 °F86 %29.41 in4.0 miWest (270°)15.0 mphSnowLight Snow Showers
2:35 PM23.0 °F15.8 °F74 %29.42 in15.0 miWest (280°)18.4 mphSnowLow Drifting Snow
3:00 PM23.0 °F14.0 °F68 %29.42 in15.0 miWest (270°)19.6 mphSnowLow Drifting Snow
3:57 PM21.2 °F12.2 °F68 %29.44 in15.0 miWest (260°)24.2 mph31.1 mphSnowLight Snow Showers
4:00 PM21.2 °F12.2 °F68 %29.43 in15.0 miWest (260°)21.9 mph31.1 mphSnowLight Snow Showers
4:29 PM19.4 °F12.2 °F74 %29.44 in15.0 miWest (280°)13.8 mph26.5 mphSnowLow Drifting Snow
5:00 PM19.4 °F10.4 °F68 %29.45 in15.0 miWest (280°)13.8 mph23.0 mphMostly Cloudy
6:00 PM15.8 °F6.8 °F68 %29.47 in15.0 miWest (280°)11.5 mphPartly Cloudy
7:00 PM14.0 °F5.0 °F67 %29.47 in15.0 miWest (260°)12.7 mphClear
8:00 PM12.0 °F4.0 °F57 %29.49 in15.0 miWest (260°)18.4 mphPartly Cloudy
8:00 PM12.2 °F3.2 °F67 %29.49 in15.0 miWest (260°)17.3 mph25.3 mphClear
9:00 PM10.4 °F3.2 °F73 %29.49 in15.0 miWest (280°)17.3 mph25.3 mphPartly Cloudy
10:00 PM8.6 °F1.4 °F73 %29.50 in15.0 miWest (280°)19.6 mph29.9 mphSnowLow Drifting Snow
11:00 PM6.8 °F-0.4 °F72 %29.51 in15.0 miWest (270°)16.1 mph32.2 mphSnowLow Drifting Snow
Hourly data recorded from CYQM, located miles away from Moncton, New Brunswick







STORIES FROM OUR PARTNERS